Weather in Hvar

Croatia     43°10′08″N   16°26′55″E
temp.,
°C
wind,
m/s
gust,
m/s
humid.,
%
clouds,
%
prec.,
mm/h
press.,
hPa
HPBL,
m
7 may, fri
fri723:00+16ese69835 0.0 1015275
02:00+16ese7117312 0.0 1013336
05:00+16ese8117931 0.0 1012378
08:00+16ese912785 0.0 1012559
11:00+17se810785 0.0 1013443
14:00+17se710755 0.0 1012532
17:00+17ese687512 0.0 1011416
20:00+16ese587995 0.0 1011211
8 may, sat
sat823:00+17ne4473100 0.0 101360
02:00+16nne3474100 0.0 101345
05:00+14ne9125791 0.0 1014379
08:00+14ne7854100 0.0 1016319
11:00+17nne234941 0.0 1017245
14:00+18nw5554100 0.0 1018452
17:00+18wnw566241 0.0 1017285
20:00+16wnw687396 0.0 1018151
9 may, sun
sun923:00+15nw567562 0.0 1019126
02:00+15nnw447124 0.0 1019111
05:00+15n22645 0.0 101855
08:00+16nne11590 0.0 101962
11:00+18wsw21510 0.0 1019325
14:00+19w32540 0.0 1020426
17:00+19wnw22560 0.0 1019273
20:00+17nne11670 0.0 101914
10 may, mon
mon1023:00+16e11665 0.0 101911
02:00+16e226391 0.0 101913
05:00+16e446396 0.0 101955
08:00+18ese45575 0.0 1019117
11:00+19se46550 0.0 1019317
14:00+19se45570 0.0 1018356
17:00+20ese45621 0.0 1017287
20:00+18e44711 0.0 101650
11 may, tue
tue1123:00+17e457499 0.0 101756
02:00+17e457577 0.0 101660
05:00+17e457080 0.0 101557
08:00+18ese57690 0.0 1015163
11:00+19ese69680 0.0 1015342
14:00+19ese68710 0.0 1014372
17:00+19ese69730 0.0 1012293
20:00+18ese712810 0.0 1010256